Rochelle, IL

6:40 AM CST on November 15, 2019 (GMT -0600)
Rochelle

Weather History for KRPJ - September, 2019

Change the Weather History Date:

Saturday, September 14, 2019

  Actual Average (WUND) Record (WUND)
Temperature  
Mean Temperature 64 °F -  
Max Temperature 78 °F - - (-1)
Min Temperature 50 °F - - (-1)
Degree Days  
Heating Degree Days 1    
Growing Degree Days 14 (Base 50)    
Moisture  
Dew Point 59 °F    
Average Humidity 85    
Maximum Humidity 100    
Minimum Humidity 58    
Precipitation  
Precipitation 0.00 in - - ()
Sea Level Pressure  
Sea Level Pressure 30.17 in    
Wind  
Wind Speed 4 mph ()    
Max Wind Speed 13 mph    
Max Gust Speed 18 mph    
Visibility 9.8 miles    
Events Rain    
Averages and records for this station are not official NWS values.
T = Trace of Precipitation, MM = Missing Value Source: Averaged Metar Reports

Daily Weather History Graph

Daily Weather History Graph

Search for Another Location

Airport or City:

Astronomy

Sep. 14, 2019 Rise Set
Actual Time 6:35 AM CDT 7:07 PM CDT
Civil Twilight 6:07 AM CDT 7:35 PM CDT
Nautical Twilight 5:34 AM CDT 8:08 PM CDT
Astronomical Twilight 4:59 AM CDT 8:42 PM CDT
Moon 7:48 PM CDT (9/14) 6:48 AM CDT (9/14)
Length of Visible Light 13h 28m
Length of Day
12h 32m
Full, 100% of the Moon is Illuminated
Sep 14
Full
Sep 21
Last Quarter
Sep 28
New
Oct 5
First Quarter
Oct 13
Full

Hourly Weather History & Observations

Time (CDT) Temp. Dew Point Humidity Pressure Visibility Wind Dir Wind Speed Gust Speed Precip Events Conditions
12:15 AM 54.5 °F 54.5 °F 100% 30.16 in 10.0 mi Calm Calm - N/A   Clear
12:35 AM 54.1 °F 54.1 °F 100% 30.16 in 10.0 mi Calm Calm - N/A   Clear
12:55 AM 54.3 °F 54.3 °F 100% 30.16 in 10.0 mi SW 4.6 mph - N/A   Clear
1:15 AM 54.0 °F 54.0 °F 100% 30.17 in 10.0 mi Calm Calm - N/A   Clear
1:35 AM 54.0 °F 54.0 °F 100% 30.17 in 10.0 mi WSW 3.5 mph - N/A   Clear
1:55 AM 53.8 °F 53.8 °F 100% 30.17 in 10.0 mi SW 4.6 mph - N/A   Clear
2:15 AM 53.2 °F 53.2 °F 100% 30.17 in 10.0 mi West 3.5 mph - N/A   Clear
2:35 AM 53.6 °F 53.6 °F 100% 30.17 in 10.0 mi West 5.8 mph - N/A   Clear
2:55 AM 54.1 °F 54.1 °F 100% 30.17 in 10.0 mi WSW 5.8 mph - N/A   Clear
3:15 AM 53.4 °F 53.4 °F 100% 30.17 in 10.0 mi WSW 3.5 mph - N/A   Clear
3:35 AM 52.3 °F 52.3 °F 100% 30.17 in 10.0 mi Calm Calm - N/A   Clear
3:55 AM 51.8 °F 51.8 °F 100% 30.18 in 10.0 mi Calm Calm - N/A   Clear
4:15 AM 51.6 °F 51.6 °F 100% 30.18 in 10.0 mi Calm Calm - N/A   Clear
4:35 AM 51.4 °F 51.4 °F 100% 30.19 in 10.0 mi SSW 5.8 mph - N/A   Clear
4:55 AM 51.8 °F 51.8 °F 100% 30.19 in 10.0 mi South 3.5 mph - N/A   Clear
5:15 AM 51.1 °F 51.1 °F 100% 30.20 in 10.0 mi Calm Calm - N/A   Clear
5:35 AM 50.4 °F 50.4 °F 100% 30.20 in 10.0 mi South 4.6 mph - N/A   Clear
5:55 AM 50.7 °F 50.7 °F 100% 30.21 in 10.0 mi South 4.6 mph - N/A   Clear
6:15 AM 50.9 °F 50.9 °F 100% 30.21 in 7.0 mi South 3.5 mph - N/A   Clear
6:35 AM 50.9 °F 50.9 °F 100% 30.22 in 7.0 mi South 3.5 mph - N/A   Clear
6:55 AM 50.9 °F 50.9 °F 100% 30.22 in 5.0 mi Calm Calm - N/A   Clear
7:15 AM 51.8 °F 51.8 °F 100% 30.23 in 7.0 mi Calm Calm - N/A   Clear
7:35 AM 53.2 °F 53.2 °F 100% 30.23 in 10.0 mi Calm Calm - N/A   Clear
7:55 AM 54.5 °F 54.5 °F 100% 30.23 in 10.0 mi Calm Calm - N/A   Clear
8:15 AM 56.8 °F 56.8 °F 100% 30.23 in 10.0 mi Calm Calm - N/A   Clear
8:35 AM 59.0 °F 59.0 °F 100% 30.23 in 10.0 mi South 3.5 mph - N/A   Clear
8:55 AM 60.8 °F 58.6 °F 93% 30.23 in 10.0 mi South 3.5 mph - N/A   Clear
9:15 AM 62.8 °F 59.0 °F 87% 30.23 in 10.0 mi South 5.8 mph - N/A   Clear
9:35 AM 64.4 °F 58.6 °F 82% 30.23 in 10.0 mi SSE 5.8 mph - N/A   Clear
9:55 AM 66.0 °F 58.6 °F 77% 30.23 in 10.0 mi South 6.9 mph - N/A   Clear
10:15 AM 67.3 °F 58.5 °F 73% 30.24 in 10.0 mi South 6.9 mph - N/A   Clear
10:35 AM 68.2 °F 59.4 °F 73% 30.24 in 10.0 mi South 8.1 mph - N/A   Clear
10:55 AM 69.3 °F 59.2 °F 70% 30.23 in 10.0 mi South 4.6 mph - N/A   Clear
11:15 AM 70.2 °F 59.9 °F 70% 30.23 in 10.0 mi SSW 8.1 mph - N/A   Clear
12:15 PM 73.2 °F 62.2 °F 68% 30.21 in 10.0 mi SSW 9.2 mph - N/A   Clear
12:35 PM 74.1 °F 61.9 °F 65% 30.21 in 10.0 mi SW 8.1 mph 16.1 mph N/A   Clear
12:55 PM 75.2 °F 62.2 °F 64% 30.21 in 10.0 mi SW 9.2 mph 17.3 mph N/A   Clear
1:15 PM 76.1 °F 63.1 °F 64% 30.21 in 10.0 mi SW 10.4 mph 16.1 mph N/A   Clear
1:35 PM 76.1 °F 61.7 °F 61% 30.20 in 10.0 mi WSW 12.7 mph 18.4 mph N/A   Clear
1:55 PM 76.6 °F 63.7 °F 64% 30.20 in 10.0 mi WSW 12.7 mph 16.1 mph N/A   Clear
2:15 PM 77.2 °F 63.0 °F 61% 30.19 in 10.0 mi WSW 12.7 mph - N/A   Clear
2:35 PM 77.4 °F 63.5 °F 62% 30.18 in 10.0 mi WSW 8.1 mph - N/A   Clear
2:55 PM 77.2 °F 62.2 °F 60% 30.17 in 10.0 mi SW 8.1 mph - N/A   Clear
3:15 PM 78.3 °F 62.4 °F 58% 30.16 in 10.0 mi SW 6.9 mph - N/A   Clear
3:35 PM 78.4 °F 63.5 °F 60% 30.15 in 10.0 mi SW 10.4 mph - N/A   Clear
3:55 PM 77.5 °F 62.6 °F 60% 30.14 in 10.0 mi SSW 6.9 mph - N/A   Clear
4:15 PM 77.9 °F 64.2 °F 63% 30.15 in 10.0 mi WSW 8.1 mph - N/A   Clear
4:35 PM 77.0 °F 64.4 °F 65% 30.14 in 10.0 mi SW 3.5 mph - N/A   Clear
4:55 PM 78.1 °F 65.8 °F 66% 30.12 in 10.0 mi South 6.9 mph - N/A   Clear
5:15 PM 77.2 °F 64.9 °F 66% 30.12 in 10.0 mi South 5.8 mph - N/A   Clear
5:35 PM 75.2 °F 65.5 °F 72% 30.12 in 10.0 mi South 4.6 mph - N/A   Clear
5:55 PM 73.4 °F 65.7 °F 77% 30.12 in 10.0 mi South 4.6 mph - N/A   Clear
6:15 PM 72.3 °F 66.2 °F 81% 30.11 in 10.0 mi SSE 3.5 mph - N/A   Clear
6:35 PM 70.7 °F 65.7 °F 84% 30.09 in 10.0 mi SE 5.8 mph - N/A   Clear
6:55 PM 69.6 °F 65.1 °F 86% 30.10 in 10.0 mi SSE 5.8 mph - N/A   Clear
7:15 PM 68.2 °F 64.9 °F 89% 30.11 in 10.0 mi SSE 5.8 mph - N/A   Clear
7:35 PM 67.6 °F 64.6 °F 90% 30.10 in 10.0 mi SSE 6.9 mph - N/A   Clear
7:55 PM 67.1 °F 64.4 °F 91% 30.10 in 10.0 mi SSE 6.9 mph - N/A   Clear
8:15 PM 66.9 °F 64.0 °F 90% 30.11 in 10.0 mi SSE 6.9 mph - N/A   Clear
8:35 PM 66.2 °F 63.9 °F 92% 30.11 in 10.0 mi SSE 5.8 mph - N/A   Clear
8:55 PM 66.4 °F 63.9 °F 92% 30.12 in 10.0 mi SSE 5.8 mph - N/A   Clear
9:15 PM 66.4 °F 63.7 °F 91% 30.12 in 10.0 mi SSE 5.8 mph - N/A   Clear
9:35 PM 65.7 °F 63.7 °F 93% 30.12 in 10.0 mi SSE 5.8 mph - N/A   Clear
9:55 PM 66.6 °F 63.5 °F 90% 30.12 in 10.0 mi SSE 5.8 mph - N/A   Clear
10:15 PM 66.7 °F 63.5 °F 89% 30.12 in 10.0 mi South 4.6 mph - N/A   Scattered Clouds
10:35 PM 68.7 °F 62.8 °F 81% 30.11 in 10.0 mi South 9.2 mph - N/A   Scattered Clouds
10:55 PM 69.4 °F 63.0 °F 80% 30.11 in 10.0 mi South 11.5 mph - N/A   Clear
11:15 PM 69.8 °F 62.6 °F 78% 30.12 in 10.0 mi SSW 10.4 mph 16.1 mph N/A   Scattered Clouds
11:35 PM 68.2 °F 63.5 °F 85% 30.11 in 10.0 mi South 10.4 mph - N/A Rain Light Rain